PDT,Max TemperatureF,Mean TemperatureF,Min TemperatureF,Max Dew PointF,MeanDew PointF,Min DewpointF,Max Humidity, Mean Humidity, Min Humidity, Max Sea Level PressureIn, Mean Sea Level PressureIn, Min Sea Level PressureIn, Max VisibilityMiles, Mean VisibilityMiles, Min VisibilityMiles, Max Wind SpeedMPH, Mean Wind SpeedMPH, Max Gust SpeedMPH,PrecipitationIn, CloudCover, Events, WindDirDegrees
2013-3-1,59,49,39,39,36,34,89,65,39,30.49,30.42,30.35,10,10,10,15,6,21,0.00,2,,147
2013-3-2,58,48,38,38,35,32,89,63,43,30.35,30.17,30.06,10,10,10,16,8,22,0.00,3,,80
2013-3-3,43,36,28,38,22,11,94,58,27,30.16,30.09,30.04,10,10,0,17,7,24,0.01,3,Fog-Rain,290
2013-3-4,46,34,22,17,12,2,73,46,16,30.19,30.11,30.00,10,10,10,18,7,26,0.00,0,,118
2013-3-5,53,44,34,38,27,15,95,59,37,29.99,29.84,29.69,10,10,7,15,7,22,0.05,6,Rain,114
2013-3-6,47,40,32,36,31,23,96,77,52,29.93,29.69,29.55,10,9,1,31,10,38,0.05,4,Rain-Snow,193
2013-3-7,45,34,24,28,23,18,86,65,35,30.01,29.97,29.93,10,10,10,17,8,22,0.00,2,,96
2013-3-8,49,36,24,26,22,18,82,61,33,30.10,29.98,29.92,10,10,10,16,6,23,0.00,0,,258
2013-3-9,51,37,23,27,21,15,84,56,24,30.43,30.29,30.10,10,10,10,13,5,20,0.00,0,,281
2013-3-10,54,40,25,39,22,8,74,51,17,30.45,30.37,30.30,10,10,10,13,6,17,0.00,4,,196
2013-3-11,46,44,42,42,40,37,91,82,71,30.32,30.28,30.24,10,10,5,13,6,,0.02,8,Rain,259
2013-3-12,61,48,36,40,36,30,95,66,31,30.25,30.18,30.13,10,10,10,14,7,16,0.00,1,,127
2013-3-13,65,54,42,36,31,25,69,49,23,30.23,30.20,30.17,10,10,10,12,7,,0.00,2,,108
2013-3-14,66,54,41,33,29,26,63,42,25,30.19,30.13,30.07,10,10,10,18,9,24,0.00,1,,167
2013-3-15,59,48,38,36,31,26,72,51,30,30.21,30.16,30.11,10,10,10,9,3,,0.00,2,,280
2013-3-16,52,42,32,37,32,26,97,74,37,30.14,30.00,29.87,10,10,2,25,7,33,0.08,4,Rain-Snow,210
2013-3-17,42,34,26,29,22,16,91,64,38,30.13,30.06,29.95,10,10,2,20,9,25,0.02,3,Snow,264
2013-3-18,50,40,29,25,19,7,77,52,18,30.16,30.11,30.07,10,10,10,17,6,24,0.00,2,,252
2013-3-19,53,40,27,39,19,10,80,45,20,30.15,30.03,29.82,10,10,7,28,9,37,0.04,5,Rain,108
2013-3-20,59,46,34,43,34,21,94,64,42,29.96,29.77,29.63,10,10,4,38,13,52,0.06,7,Rain,226
2013-3-21,42,34,27,28,22,16,93,63,43,30.11,30.06,29.97,10,9,1,24,14,32,0.00,6,Snow,268
2013-3-22,36,30,24,26,22,17,94,76,50,30.23,30.13,30.07,10,8,1,17,7,21,0.00,7,Snow,267
2013-3-23,38,30,21,25,19,13,94,68,37,30.27,30.23,30.17,10,10,4,9,3,,0.00,3,Snow,91
2013-3-24,47,34,21,28,20,16,79,56,33,30.21,30.15,30.08,10,10,10,13,7,,0.00,3,,98
2013-3-25,55,44,34,28,24,19,62,46,34,30.08,30.00,29.91,10,10,10,10,6,,0.00,6,,100
2013-3-26,54,46,38,38,34,27,84,66,47,29.97,29.93,29.91,10,10,10,10,5,,0.02,8,Rain,108
2013-3-27,55,47,39,43,38,34,90,73,51,29.98,29.94,29.91,10,10,5,13,5,20,0.06,6,Rain-Thunderstorm,117
2013-3-28,58,47,36,43,39,35,94,75,45,30.11,30.03,29.98,10,10,10,14,4,,0.00,6,Rain,279
2013-3-29,61,51,41,43,39,35,95,69,39,30.23,30.18,30.11,10,10,10,10,3,9,0.00,5,,256
2013-3-30,68,52,35,39,34,28,89,56,24,30.25,30.19,30.10,10,10,10,12,7,,0.00,0,,113
2013-3-31,71,55,39,40,34,27,78,50,19,30.10,29.99,29.88,10,10,10,15,7,20,0.00,0,,110